[[{"header":{"parameterUnit":"m.s-1","parameterCategory":1,"la1":30.2992,"la2":30.254,"lo1":-89.0895,"lo2":-89.0443,"dy":0.0025,"dx":0.0025,"nx":19,"ny":19,"refTime":"2026-04-04T09:00:00:Z","depth":0,"parameterNumber":2,"parameterNumberName":"U-component_of_WINDS"},"data":[0,0,0,-2.1699,-2.1703,-2.1858,-2.1858,-2.2066,-2.2068,0,0,0,0,0,0,0,0,0,0,0,-2.1659,-2.166,-2.1699,-2.1703,-2.1858,-2.1858,-2.2066,-2.2068,0,0,0,0,0,0,0,0,0,0,0,-2.1658,-2.166,-2.1662,-2.1704,-2.1858,-2.1858,-2.2065,-2.1945,0,0,0,0,0,0,0,0,0,0,-2.1793,-2.1761,-2.166,-2.1662,-2.1705,-2.1857,-2.1858,-2.1939,-2.1953,-2.2,0,-2.2043,0,-2.2059,-2.2083,-2.2083,0,0,0,-2.1699,-2.175,-2.1787,-2.1662,-2.1706,-2.1857,-2.1787,-2.1947,-2.1962,-2.2018,-2.2046,-2.2053,-2.2062,-2.2084,-2.2085,-2.237,-2.2371,0,0,-2.1691,-2.169,-2.1776,-2.1797,-2.1773,-2.1782,-2.1792,-2.1956,-2.1987,-2.2047,-2.2058,-2.2066,-2.2086,-2.2087,-2.2369,-2.237,0,0,0,-2.1669,-2.1684,-2.1717,-2.1788,-2.1815,-2.1786,-2.1798,-2.1979,-2.199,-2.206,-2.2068,-2.2087,-2.2089,-2.2367,-2.2369,-2.2445,0,0,0,-2.1663,-2.1671,-2.1713,-2.1714,-2.1813,-2.1899,-2.1818,-2.1978,-2.1997,-2.2067,-2.2087,-2.2092,-2.2365,-2.2368,-2.2439,-2.2482,0,0,0,-2.1647,-2.1669,-2.1693,-2.1714,-2.178,-2.1897,-2.1916,-2.1982,-2.2002,-2.2084,-2.2092,-2.2364,-2.2368,-2.2434,-2.2473,-2.2558,0,0,0,-2.1629,-2.1758,-2.1695,-2.1841,-2.1779,-2.1941,-2.1915,-2.2036,-2.2115,-2.2088,-2.2365,-2.2369,-2.2432,-2.2468,-2.2553,-2.2631,-2.2663,0,0,-2.1792,-2.1777,-2.1864,-2.1811,-2.1985,-2.1917,-2.2102,-2.2175,-2.2183,-2.2307,-2.2314,-2.2441,-2.2473,-2.2557,-2.2837,-2.2862,0,0,0,-2.1915,-2.1977,-2.2023,-2.2098,-2.2155,-2.2209,-2.2253,-2.228,-2.2386,-2.2246,-2.2493,-2.2512,-2.2561,-2.2599,-2.2621,-2.2664,-2.2386,-2.2385,-2.2385,-2.2146,-2.2148,-2.2292,-2.2313,-2.2386,-2.2429,-2.2489,-2.2533,-2.2514,-2.2572,-2.2611,-2.278,-2.2824,-2.2841,-2.2886,-2.265,-2.265,-2.265,-2.265,-2.2386,-2.2476,-2.2447,-2.2576,-2.2578,-2.2687,-2.2733,-2.2717,-2.2819,-2.2752,-2.2795,-2.2725,-2.2868,-2.2908,-2.2656,-2.2655,-2.2654,-2.2654,-2.2653,-2.254,-2.2584,-2.2613,-2.2721,-2.2803,-2.282,-2.2919,-2.2917,-2.2916,-2.2958,-2.3,-2.2999,-2.3,-2.2977,-2.2978,-2.2979,-2.2979,-2.298,-2.298,-2.269,-2.272,-2.2804,-2.2876,-2.2923,-2.2985,-2.3029,-2.3076,-2.3128,-2.3118,-2.3119,-2.3097,-2.288,-2.2828,-2.2989,-2.2988,-2.2986,-2.2986,-2.2985,-2.2939,-2.2882,-2.3011,-2.3059,-2.3142,-2.3226,-2.322,-2.3315,-2.3353,-2.3403,-2.337,-2.3209,-2.3196,-2.3179,-2.3136,-2.3367,-2.3367,-2.3367,-2.3367,-2.3072,-2.3063,-2.3195,-2.3272,-2.3346,-2.3353,-2.3501,-2.3536,-2.3563,-2.3587,-2.3552,-2.3493,-2.3476,-2.3473,-2.3449,-2.3409,-2.3705,-2.3706,-2.3706,-2.3226,-2.3224,-2.3351,-2.3375,-2.344,-2.3496,-2.3635,-2.3724,-2.3743,-2.372,-2.3606,-2.3592,-2.3497,-2.3466,-2.3444,-2.3407,-2.3334,0,0]},{"header":{"parameterUnit":"m.s-1","parameterCategory":1,"la1":30.2992,"la2":30.254,"lo1":-89.0895,"lo2":-89.0443,"dy":0.0025,"dx":0.0025,"nx":19,"ny":19,"refTime":"2026-04-04T09:00:00:Z","depth":0,"parameterNumber":3,"parameterNumberName":"V-component_of_WINDS"},"data":[0,0,0,-6.2105,-6.2109,-6.2309,-6.231,-6.2573,-6.2575,0,0,0,0,0,0,0,0,0,0,0,-6.2054,-6.2056,-6.2104,-6.211,-6.2309,-6.231,-6.2572,-6.2575,0,0,0,0,0,0,0,0,0,0,0,-6.2053,-6.2055,-6.2058,-6.2111,-6.2309,-6.231,-6.2572,-6.2418,0,0,0,0,0,0,0,0,0,0,-6.2222,-6.2184,-6.2055,-6.2058,-6.2112,-6.2309,-6.231,-6.241,-6.2427,-6.2487,0,-6.2545,0,-6.2565,-6.2594,-6.2595,0,0,0,-6.2103,-6.217,-6.2216,-6.2059,-6.2114,-6.2309,-6.2217,-6.2419,-6.2439,-6.251,-6.2549,-6.2558,-6.2569,-6.2596,-6.2597,-6.2973,-6.2975,0,0,-6.2091,-6.2093,-6.2203,-6.223,-6.2203,-6.2211,-6.2223,-6.2431,-6.2473,-6.255,-6.2564,-6.2574,-6.2597,-6.26,-6.2971,-6.2973,0,0,0,-6.2065,-6.2086,-6.2127,-6.2219,-6.2255,-6.2217,-6.2231,-6.2463,-6.2477,-6.2567,-6.2577,-6.2599,-6.2602,-6.2969,-6.2972,-6.3079,0,0,0,-6.2058,-6.207,-6.2123,-6.2126,-6.2251,-6.2362,-6.2259,-6.2462,-6.2486,-6.2575,-6.2599,-6.2605,-6.2966,-6.297,-6.3072,-6.313,0,0,0,-6.2038,-6.2068,-6.21,-6.2126,-6.2212,-6.2359,-6.2384,-6.2467,-6.2492,-6.2595,-6.2606,-6.2965,-6.297,-6.3065,-6.3118,-6.3231,0,0,0,-6.2016,-6.2191,-6.2102,-6.23,-6.2211,-6.2425,-6.2383,-6.2541,-6.2642,-6.26,-6.2967,-6.2971,-6.3062,-6.3111,-6.3223,-6.3327,-6.337,0,0,-6.2238,-6.2218,-6.2334,-6.226,-6.2492,-6.2394,-6.264,-6.2728,-6.2734,-6.2892,-6.2901,-6.3074,-6.3118,-6.3229,-6.3609,-6.3643,0,0,0,-6.2405,-6.2489,-6.2549,-6.2647,-6.2721,-6.2788,-6.284,-6.2872,-6.3007,-6.2817,-6.3144,-6.317,-6.3235,-6.3284,-6.3314,-6.337,-6.2994,-6.2994,-6.2993,-6.2721,-6.2721,-6.2914,-6.2939,-6.3033,-6.3085,-6.3161,-6.3213,-6.3183,-6.3261,-6.3308,-6.3539,-6.3597,-6.3619,-6.3677,-6.3361,-6.3362,-6.3362,-6.3363,-6.3046,-6.3165,-6.3123,-6.3295,-6.3293,-6.3436,-6.3491,-6.3465,-6.3596,-6.3503,-6.356,-6.346,-6.3657,-6.3708,-6.3371,-6.3369,-6.3368,-6.3367,-6.3367,-6.3254,-6.3312,-6.335,-6.3492,-6.36,-6.3616,-6.3745,-6.3737,-6.373,-6.3787,-6.3837,-6.3835,-6.3833,-6.3811,-6.3812,-6.3813,-6.3813,-6.3814,-6.3814,-6.3456,-6.3496,-6.3607,-6.3701,-6.3762,-6.3842,-6.3894,-6.3953,-6.4017,-6.4001,-6.4001,-6.3964,-6.3676,-6.3605,-6.3827,-6.3825,-6.3823,-6.3822,-6.3821,-6.3788,-6.3712,-6.3884,-6.3947,-6.4054,-6.4162,-6.415,-6.4272,-6.4319,-6.4383,-6.4333,-6.4121,-6.4099,-6.4076,-6.4017,-6.4332,-6.4332,-6.4332,-6.4332,-6.3965,-6.3954,-6.4128,-6.4228,-6.4325,-6.4332,-6.4523,-6.4565,-6.4594,-6.4623,-6.4576,-6.4496,-6.4472,-6.4464,-6.4433,-6.4377,-6.4778,-6.4778,-6.4779,-6.417,-6.4167,-6.4334,-6.4366,-6.4449,-6.452,-6.47,-6.4813,-6.483,-6.4797,-6.4646,-6.4627,-6.4498,-6.4456,-6.442,-6.4371,-6.427,0,0]}]]